This is the latest recevied weather packets stored in our database for station/object F5ZQC-13. If no packets are shown the sender has not sent any weather packets the latest 10 day(s).
| Time | Temp. | Humidity | Pressure | Rain* | Wind** | Luminosity | Snow |
|---|---|---|---|---|---|---|---|
| 1777485629 | 23.89° C | 36% | 1009.1 hPa | 0 mm | - | - | - |
| 1777485353 | 25° C | 35% | 1008.9 hPa | 0 mm | - | - | - |
| 1777485353 | 24.44° C | 36% | 1008.8 hPa | 0 mm | - | - | - |
| 1777485017 | 24.44° C | 35% | 1008.9 hPa | 0 mm | - | - | - |
| 1777484896 | 24.44° C | 36% | 1008.8 hPa | 0 mm | - | - | - |
| 1777484773 | 25° C | 35% | 1008.9 hPa | 0 mm | - | - | - |
| 1777484651 | 25° C | 35% | 1008.8 hPa | 0 mm | - | - | - |
| 1777484528 | 25° C | 35% | 1008.8 hPa | 0 mm | - | - | - |
| 1777484406 | 25° C | 35% | 1008.8 hPa | 0 mm | - | - | - |
| 1777484284 | 25.56° C | 34% | 1008.8 hPa | 0 mm | - | - | - |
| 1777483917 | 25.56° C | 34% | 1008.7 hPa | 0 mm | - | - | - |
| 1777483673 | 26.11° C | 34% | 1008.6 hPa | 0 mm | - | - | - |
| 1777483427 | 26.11° C | 34% | 1008.8 hPa | 0 mm | - | - | - |
| 1777483306 | 26.11° C | 34% | 1008.7 hPa | 0 mm | - | - | - |
| 1777483062 | 26.67° C | 34% | 1008.6 hPa | 0 mm | - | - | - |
| 1777482939 | 26.67° C | 34% | 1008.7 hPa | 0 mm | - | - | - |
| 1777482816 | 26.67° C | 35% | 1008.7 hPa | 0 mm | - | - | - |
| 1777482572 | 26.67° C | 35% | 1008.7 hPa | 0 mm | - | - | - |
| 1777482450 | 26.67° C | 35% | 1008.7 hPa | 0 mm | - | - | - |
| 1777482328 | 26.67° C | 35% | 1008.7 hPa | 0 mm | - | - | - |
| 1777482205 | 26.67° C | 35% | 1008.7 hPa | 0 mm | - | - | - |
| 1777482083 | 26.67° C | 35% | 1008.6 hPa | 0 mm | - | - | - |
| 1777481838 | 26.11° C | 35% | 1008.7 hPa | 0 mm | - | - | - |
| 1777481593 | 26.11° C | 35% | 1008.7 hPa | 0 mm | - | - | - |
| 1777481471 | 26.11° C | 35% | 1008.7 hPa | 0 mm | - | - | - |
* Rain since midnight (hover to see other rain measurements)
** Current wind speed in m/s (hover to see current wind gust speed)